This is the latest recevied weather packets stored in our database for station/object S51UL-6. If no packets are shown the sender has not sent any weather packets the latest 10 day(s).
| Time | Temp. | Humidity | Pressure | Rain* | Wind** | Luminosity | Snow |
|---|---|---|---|---|---|---|---|
| 1788082930 | 27.78° C | 53% | 1018.4 hPa | 2.03 mm | - | - | - |
| 1788082629 | 27.78° C | 53% | 1018.5 hPa | 2.03 mm | - | - | - |
| 1788082329 | 27.78° C | 55% | 1018.6 hPa | 2.03 mm | - | - | - |
| 1788082030 | 27.78° C | 54% | 1018.5 hPa | 2.03 mm | - | - | - |
| 1788081730 | 27.22° C | 54% | 1018.7 hPa | 3.56 mm | - | - | - |
| 1788081430 | 27.22° C | 56% | 1018.6 hPa | 4.06 mm | - | - | - |
| 1788081130 | 27.22° C | 55% | 1018.7 hPa | 4.57 mm | - | - | - |
| 1788080530 | 26.67° C | 56% | 1018.7 hPa | 3.05 mm | - | - | - |
| 1788079331 | 26.67° C | 56% | 1018.8 hPa | 3.05 mm | - | - | - |
| 1788079031 | 26.67° C | 57% | 1018.8 hPa | 3.05 mm | - | - | - |
| 1788078730 | 26.67° C | 56% | 1018.8 hPa | 3.05 mm | - | - | - |
| 1788078430 | 26.67° C | 56% | 1018.9 hPa | 3.05 mm | - | - | - |
| 1788078130 | 26.67° C | 58% | 1018.8 hPa | 0.51 mm | - | - | - |
| 1788077531 | 26.67° C | 60% | 1018.8 hPa | 0 mm | - | - | - |
| 1788076931 | 26.11° C | 65% | 1018.8 hPa | 0 mm | - | - | - |
| 1788076330 | 24.44° C | 69% | 1018.8 hPa | 0 mm | - | - | - |
| 1788076031 | 23.33° C | 73% | 1018.8 hPa | 0 mm | - | - | - |
| 1788075731 | 22.78° C | 74% | 1018.8 hPa | 0 mm | - | - | - |
| 1788075132 | 20.56° C | 79% | 1018.7 hPa | 0 mm | - | - | - |
| 1788074831 | 20° C | 79% | 1018.8 hPa | 0 mm | - | - | - |
| 1788074531 | 19.44° C | 79% | 1018.8 hPa | 0 mm | - | - | - |
| 1788074231 | 18.89° C | 81% | 1018.8 hPa | 0 mm | - | - | - |
| 1788073932 | 18.33° C | 81% | 1018.7 hPa | 0 mm | - | - | - |
| 1788073631 | 18.33° C | 83% | 1018.7 hPa | 0 mm | - | - | - |
| 1788073331 | 17.78° C | 84% | 1018.5 hPa | 0 mm | - | - | - |
* Rain latest hour (hover to see other rain measurements)
** Current wind speed in m/s (hover to see current wind gust speed)